Index of /nightly/org.ametys.plugins

[ICO]NameLast modifiedSizeDescription

[PARENTDIR]Parent Directory  -  
[DIR]artisteer/2022-05-21 06:25 -  
[DIR]blog/2022-05-21 06:25 -  
[DIR]bpm/2022-05-21 06:25 -  
[DIR]calendar/2022-07-27 06:25 -  
[DIR]cart/2022-07-07 00:47 -  
[DIR]classified-ads/2022-05-21 06:25 -  
[DIR]content-io/2022-08-30 06:25 -  
[DIR]contents-tree/2022-05-12 17:26 -  
[DIR]contenttypes-editor/2022-08-30 06:25 -  
[DIR]dashboard/2022-11-05 06:25 -  
[DIR]data-filler/2022-06-28 06:25 -  
[DIR]datasources-explorer/2021-12-29 06:25 -  
[DIR]deploy-starter/2022-05-19 11:49 -  
[DIR]exchange-site/2022-09-29 00:54 -  
[DIR]exchange/2022-09-29 00:54 -  
[DIR]external-data/2022-11-05 06:25 -  
[DIR]extra-user-management-site/2022-07-27 06:25 -  
[DIR]extra-user-management/2022-07-27 06:25 -  
[DIR]extraction/2022-06-23 01:06 -  
[DIR]faq/2022-05-21 06:25 -  
[DIR]flipbook/2022-06-28 06:25 -  
[DIR]forms/2022-07-02 06:25 -  
[DIR]front-edition/2022-10-28 01:04 -  
[DIR]front-notification/2022-05-21 06:25 -  
[DIR]glossary/2022-10-28 01:04 -  
[DIR]glpi/2022-12-01 06:25 -  
[DIR]google-calendar/2022-05-21 06:25 -  
[DIR]hyperplanning/2022-08-30 06:25 -  
[DIR]inlinemedia/2022-05-21 06:25 -  
[DIR]job-offer/2022-11-05 06:25 -  
[DIR]link-directory/2022-09-06 01:06 -  
[DIR]maps/2022-05-21 06:25 -  
[DIR]messaging-connector/2022-07-27 06:25 -  
[DIR]mobileapp-site/2022-07-27 06:25 -  
[DIR]mobileapp/2022-07-27 06:25 -  
[DIR]multimedia/2022-12-01 06:25 -  
[DIR]myfavorites/2022-05-21 06:25 -  
[DIR]news/2022-05-21 06:25 -  
[DIR]newsletter/2022-08-25 06:25 -  
[DIR]odf-ose/2022-08-25 06:25 -  
[DIR]odf-pilotage/2022-08-25 06:25 -  
[DIR]odf-sync/2022-08-25 06:25 -  
[DIR]odf-web/2022-08-25 06:25 -  
[DIR]odf/2022-08-25 06:25 -  
[DIR]page-subscription/2022-05-21 06:25 -  
[DIR]proxied-content-site/2022-05-21 06:25 -  
[DIR]proxied-content/2022-05-21 06:25 -  
[DIR]queries-directory/2022-07-07 00:47 -  
[DIR]server-directory/2022-05-21 06:25 -  
[DIR]skin-commons/2022-06-28 06:25 -  
[DIR]skin-editor/2022-06-28 06:25 -  
[DIR]skin-factory/2022-06-28 06:25 -  
[DIR]social-networking/2022-05-21 06:25 -  
[DIR]survey/2022-12-07 00:56 -  
[DIR]syndication/2022-06-28 06:25 -  
[DIR]tagcloud/2022-05-21 06:25 -  
[DIR]tarteaucitron/2022-05-21 06:25 -  
[DIR]thesaurus/2022-08-30 06:25 -  
[DIR]translation-flagging/2022-05-21 06:25 -  
[DIR]ugc/2022-10-12 00:56 -  
[DIR]user-directory/2022-10-18 00:58 -  
[DIR]web-analytics/2022-05-21 06:25 -  
[DIR]web-content-io/2022-05-21 06:25 -  
[DIR]web-deploy-starter/2022-05-19 11:49 -  
[DIR]workspaces-site/2022-08-25 06:25 -  
[DIR]workspaces/2022-08-25 06:25 -  
[DIR]zimbra/2022-10-28 01:27 -